Date String (YYYY-MM-DD hh:mm:ss) UTC,Instrument flags,Ambient pressure (hPa),Sample flow (lpm),Bypass flow (lpm),Sample temperature (°C),Ambient temperature (°C),ASC tube jacket temperature (°C),LED temperature (°C),Box temperature (°C),Sample RH (%),Span deviation,Mass concentration (μg/m³),Mass concentration (μg/m³),Mass concentration (μg/m³)
DateTimeUTC,F1_M11,P_M11,Q1_M11,Q2_M11,T1_M11,T2_M11,T3_M11,T4_M11,T5_M11,U1_M11,ZSPAN_M11,X2_M11,X0_M11,X1_M11
2023-01-05 14:00:00,,0826.2,5.01,0.00,22.3,21.0,00.0,31.2,24.0,07.4,0000.0,0004.43,0007.11,0004.23
2023-01-05 14:01:00,,0826.2,5.00,0.00,22.4,22.1,00.0,31.1,24.3,07.4,0000.0,0004.43,0006.99,0004.25
2023-01-05 14:02:00,,0826.2,5.00,0.00,22.5,23.0,00.0,31.2,24.5,07.3,0000.0,0004.40,0006.90,0004.22
2023-01-05 14:03:00,,0826.3,4.98,0.00,22.6,22.9,00.0,31.2,24.6,07.3,0000.0,0004.27,0006.70,0004.08
2023-01-05 14:04:00,,0826.2,5.00,0.00,22.6,22.5,00.0,31.3,24.5,07.3,0000.0,0004.14,0006.37,0003.92
2023-01-05 14:05:00,,0826.2,5.00,0.00,22.6,22.1,00.0,31.3,24.5,07.2,0000.0,0004.09,0006.74,0003.86
2023-01-05 14:06:00,,0826.2,5.00,0.00,22.6,21.7,00.0,31.3,24.4,07.2,0000.0,0004.08,0006.99,0003.83
2023-01-05 14:07:00,,0826.2,4.99,0.00,22.6,21.4,00.0,31.3,24.3,07.3,0000.0,0004.06,0006.99,0003.80
2023-01-05 14:08:00,,0826.2,5.00,0.00,22.5,21.2,00.0,31.3,24.2,07.3,0000.0,0004.04,0007.00,0003.77
2023-01-05 14:09:00,,0826.2,5.01,0.00,22.5,21.1,00.0,31.3,24.2,07.3,0000.0,0004.00,0006.89,0003.74
2023-01-05 14:10:00,,0826.3,5.01,0.00,22.5,20.9,00.0,31.3,24.1,07.3,0000.0,0003.97,0006.88,0003.73
2023-01-05 14:11:00,,0826.3,4.99,0.00,22.4,20.8,00.0,31.3,24.1,07.4,0000.0,0003.97,0006.83,0003.72
2023-01-05 14:12:00,,0826.4,5.00,0.00,22.4,20.8,00.0,31.3,24.1,07.5,0000.0,0003.99,0006.87,0003.73
2023-01-05 14:13:00,,0826.4,4.98,0.00,22.4,20.7,00.0,31.3,24.1,07.5,0000.0,0003.99,0006.85,0003.73
2023-01-05 14:14:00,,0826.3,4.97,0.00,22.4,20.7,00.0,31.3,24.0,07.5,0000.0,0003.97,0006.70,0003.73
2023-01-05 14:15:00,,0826.3,4.99,0.00,22.3,20.7,00.0,31.2,24.0,07.5,0000.0,0003.98,0006.67,0003.76
2023-01-05 14:16:00,,0826.4,5.01,0.00,22.4,21.6,00.0,31.2,24.2,07.4,0000.0,0003.98,0006.15,0003.78
2023-01-05 14:17:00,,0826.5,5.00,0.00,22.5,22.6,00.0,31.2,24.4,07.3,0000.0,0003.97,0005.92,0003.78
2023-01-05 14:18:00,,0826.5,5.00,0.00,22.6,23.1,00.0,31.2,24.6,07.3,0000.0,0003.96,0005.86,0003.78
2023-01-05 14:19:00,,0826.5,4.98,0.00,22.7,22.7,00.0,31.3,24.6,07.3,0000.0,0003.95,0005.78,0003.77
2023-01-05 14:20:00,,0826.5,5.01,0.00,22.7,22.2,00.0,31.3,24.5,07.3,0000.0,0003.94,0005.78,0003.76
2023-01-05 14:21:00,,0826.5,5.00,0.00,22.6,21.7,00.0,31.3,24.4,07.4,0000.0,0003.95,0005.73,0003.76
2023-01-05 14:22:00,,0826.5,5.00,0.00,22.6,21.3,00.0,31.3,24.2,07.4,0000.0,0003.99,0005.77,0003.81
2023-01-05 14:23:00,,0826.6,5.00,0.00,22.5,20.9,00.0,31.3,24.1,07.5,0000.0,0004.10,0006.03,0003.90
2023-01-05 14:24:00,,0826.7,5.00,0.00,22.4,20.7,00.0,31.3,24.0,07.7,0000.0,0004.31,0006.54,0004.09
2023-01-05 14:25:00,,0826.7,5.00,0.00,22.4,20.5,00.0,31.3,23.9,07.8,0000.0,0004.66,0007.23,0004.41
2023-01-05 14:26:00,,0826.7,4.99,0.00,22.3,20.2,00.0,31.3,23.7,08.0,0000.0,0005.16,0007.91,0004.87
2023-01-05 14:27:00,,0826.7,5.00,0.00,22.2,20.0,00.0,31.2,23.6,08.2,0000.0,0005.74,0008.69,0005.44
2023-01-05 14:28:00,,0826.7,5.00,0.00,22.1,19.8,00.0,31.2,23.5,08.4,0000.0,0006.43,0009.82,0006.11
2023-01-05 14:29:00,,0826.7,5.01,0.00,22.1,20.5,00.0,31.1,23.7,08.4,0000.0,0007.13,0010.68,0006.78
2023-01-05 14:30:00,,0826.7,5.01,0.00,22.2,21.7,00.0,31.1,24.0,08.5,0000.0,0007.95,0011.72,0007.55
2023-01-05 14:31:00,,0826.7,5.00,0.00,22.3,22.6,00.0,31.1,24.2,08.5,0000.4,0008.77,0012.75,0008.34
2023-01-05 14:32:00,,0826.7,4.99,0.00,22.4,22.2,00.0,31.1,24.2,08.5,0000.4,0009.57,0013.88,0009.13
2023-01-05 14:33:00,,0826.8,4.99,0.00,22.3,21.5,00.0,31.2,23.9,08.5,0000.6,0010.33,0014.80,0009.87
2023-01-05 14:34:00,,0826.7,5.00,0.00,22.2,20.8,00.0,31.2,23.7,08.5,0000.7,0011.02,0015.56,0010.61
2023-01-05 14:35:00,,0826.8,5.00,0.00,22.1,20.3,00.0,31.2,23.5,08.6,0000.7,0011.63,0016.37,0011.23
2023-01-05 14:36:00,,0826.9,5.00,0.00,22.1,20.0,00.0,31.1,23.3,08.6,0000.5,0012.13,0017.71,0011.73
2023-01-05 14:37:00,,0827.0,5.01,0.00,21.9,19.6,00.0,31.1,23.2,08.7,0000.3,0012.47,0018.14,0012.06
2023-01-05 14:38:00,,0827.3,5.00,0.00,21.9,19.4,00.0,31.0,23.1,08.7,0000.1,0012.72,0018.36,0012.31
2023-01-05 14:39:00,,0826.8,5.00,0.00,21.8,19.4,00.0,31.0,23.1,08.8,-000.1,0012.86,0018.23,0012.46
2023-01-05 14:40:00,,0826.8,5.00,0.00,21.8,20.6,00.0,30.9,23.3,08.8,0000.3,0013.02,0018.45,0012.62
2023-01-05 14:41:00,,0826.8,5.00,0.00,21.9,21.9,00.0,30.8,23.7,08.7,0000.4,0012.98,0018.33,0012.60
2023-01-05 14:42:00,,0826.7,4.99,0.00,22.1,22.4,00.0,30.9,23.9,08.7,0000.1,0012.97,0018.21,0012.62
2023-01-05 14:43:00,,0826.7,5.00,0.00,22.1,21.7,00.0,30.9,23.7,08.7,0000.4,0013.07,0018.12,0012.70
2023-01-05 14:44:00,,0826.6,5.00,0.00,22.0,21.0,00.0,30.9,23.5,08.7,0000.6,0013.13,0018.16,0012.77
2023-01-05 14:45:00,,0826.7,5.00,0.00,21.9,20.4,00.0,30.9,23.3,08.8,0000.3,0013.20,0018.32,0012.82
2023-01-05 14:46:00,,0826.6,5.01,0.00,21.8,19.9,00.0,30.9,23.1,08.8,0000.5,0013.26,0018.33,0012.87
2023-01-05 14:47:00,,0826.7,5.01,0.00,21.7,19.6,00.0,30.9,23.0,08.9,0000.9,0013.25,0017.46,0012.87
2023-01-05 14:48:00,,0826.7,5.01,0.00,21.7,19.4,00.0,30.8,23.0,08.9,0001.2,0013.28,0017.44,0012.90
2023-01-05 14:49:00,,0826.6,5.00,0.00,21.6,19.3,00.0,30.8,22.9,09.0,0001.7,0013.30,0017.40,0012.94
2023-01-05 14:50:00,,0826.7,5.02,0.00,21.6,19.7,00.0,30.7,23.0,09.0,0001.4,0013.36,0017.43,0012.98
2023-01-05 14:51:00,,0826.7,5.00,0.00,21.7,21.0,00.0,30.6,23.3,09.0,0001.0,0013.40,0017.42,0013.01
2023-01-05 14:52:00,,0826.7,4.98,0.00,21.8,22.2,00.0,30.6,23.7,08.9,0000.7,0013.50,0017.51,0013.12
2023-01-05 14:53:00,,0826.6,5.03,0.00,21.9,22.1,00.0,30.7,23.7,08.8,0000.6,0013.55,0017.64,0013.16
2023-01-05 14:54:00,,0826.7,5.00,0.00,21.9,21.3,00.0,30.7,23.5,08.8,0000.8,0013.52,0017.78,0013.11
2023-01-05 14:55:00,,0826.7,4.97,0.00,21.8,20.6,00.0,30.7,23.2,08.9,0000.6,0013.44,0018.73,0013.03
2023-01-05 14:56:00,,0826.7,5.02,0.00,21.7,19.9,00.0,30.7,23.0,08.9,0000.8,0013.40,0018.66,0012.98
2023-01-05 14:57:00,,0826.7,5.00,0.00,21.6,19.5,00.0,30.7,22.9,09.0,0001.3,0013.39,0018.64,0012.97
2023-01-05 14:58:00,,0826.7,5.02,0.00,21.5,19.1,00.0,30.7,22.8,08.8,0001.2,0013.25,0018.53,0012.81
2023-01-05 14:59:00,,0826.7,4.99,0.00,21.4,19.0,00.0,30.6,22.6,08.7,0001.4,0012.83,0018.03,0012.41
